Regional Weather Roundup
Issued by NWS Kansas City/Pleasant Hill, MO

Home | Current Version | Previous Version | Graphics & Text | Print | Product List | Glossary Off
Versions: 1 2 3 4 5 6 7 8 9 10 11 12 13 14 15 16 17 18 19 20 21 22 23 24 25 26 27 28 29 30 31 32 33 34 35 36 37 38 39 40 41 42 43 44 45 46 47 48 49 50

000
ASUS43 KEAX 010110
RWREAX

WEATHER ROUNDUP FOR EASTERN KANSAS AND NORTHWEST MISSOURI
NATIONAL WEATHER SERVICE KANSAS CITY/PLEASANT HILL MO
800 PM CDT FRI JUL 31 2015

KSZ040-057-103>105-MOZ028-029-037-043-010200-
...KANSAS CITY METROPOLITAN AREA...

CITY           SKY/WX    TMP DP  RH WIND       PRES   REMARKS
K.C. INTL      PTCLDY    82  72  71 S3        30.05S
K.C. DOWNTOWN  CLEAR     86  68  54 W3        30.03S
LEES SUMMIT    CLEAR     84  69  60 CALM      30.05F
OLATHE - IXD   CLEAR     85  67  54 NW5       30.06F
OLATHE - OJC   CLEAR     85  65  51 NW3       30.05F
LAWRENCE       CLEAR     85  75  72 CALM      30.04F HX  93

$$

MOZ001>008-011>017-020>025-030>033-038>040-044>046-053-054-010200-
...NORTHERN AND CENTRAL MISSOURI...

CITY           SKY/WX    TMP DP  RH WIND       PRES   REMARKS
ST. JOSEPH       N/A     87  73  62 CALM      30.04R HX  94
MOSBY          CLEAR     86  68  54 CALM      30.04S
WARRENSBURG    CLEAR     84  64  51 CALM      30.04F
WHITEMAN AFB   CLEAR     86  66  50 CALM      30.04S
CLINTON        CLEAR     86  70  58 CALM      30.06R HX  90
SEDALIA        CLEAR     85  64  49 CALM      30.06S
WARSAW         NOT AVBL
CHILLICOTHE      N/A     83  75  77 CALM      30.03F HX  90
KIRKSVILLE     CLOUDY    80  71  74 S3        30.04F

$$

MOZ041-047>049-056>058-063>065-088>090-097-010200-
...EASTERN AND SOUTHERN MISSOURI...

CITY           SKY/WX    TMP DP  RH WIND       PRES   REMARKS
ST. LOUIS INTL PTCLDY    86  61  42 N5        30.02R
SPIRIT OF STL  PTCLDY    81  71  71 CALM      30.00S
COLUMBIA       CLEAR     84  66  54 NW3       30.04S
JEFFERSON CITY CLEAR     86  65  49 CALM      30.02S
ROLLA          CLEAR     81  64  56 W5        30.05S
OSAGE BEACH    CLEAR     79  72  78 CALM      30.06S
SPRINGFIELD    CLEAR     83  62  49 SW3       30.08S
BRANSON        PTCLDY    82  66  57 CALM      30.09S
JOPLIN         CLEAR     83  61  47 S7        30.07R
WEST PLAINS    CLEAR     81  66  60 W3        30.09S

$$

IAZ060-094-KSZ022-034>040-054-083-096-NEZ052-066-093-010200-
...KANSAS...SOUTHEAST NEBRASKA AND IOWA...

CITY           SKY/WX    TMP DP  RH WIND       PRES   REMARKS
TOPEKA         CLEAR     87  69  54 S5        30.04F HX  91
MANHATTAN      CLEAR     87  71  58 S5        30.04S HX  93
EMPORIA        CLEAR     85  70  60 E5        30.06S
CHANUTE        CLEAR     85  72  65 S6        30.06S HX  91
WICHITA        PTCLDY    86  69  56 SE8       30.06S HX  90
OMAHA          MOCLDY    86  75  69 E5        30.01F HX  95
LINCOLN        CLOUDY    82  57  42 N9        30.04R
FALLS CITY     MOCLDY    84  74  71 S5        30.02F HX  91
LAMONI         CLOUDY    73  63  70 W6        30.05S
DES MOINES     PTCLDY    84  59  42 E6        30.03S

$$




USA.gov is the U.S. government's official web portal to all federal, state and local government web resources and services.